map of TLN home
TLN - Airport
Location
City:  Hyeres, Provence-Alpes-Côte d'Azur, France
Name:Le Palyvestre
ICAO:LFTH
IATA:TLN

Details
Type:Airport (Aerodrome, Airfield)
Use:Military
Latitude:43°05'50"N (43.097344)
Longitude:6°08'46"E (6.146031)
Elevation:7 ft (2 m)
Variation:2.02°E (WMM2015v2 magnetic declination)
0.15° annual change
Runways:2
Longest:6955 × 148 ft (2120 × 45 m)

Time
Time Zone:UTC+1 (DST+2)
Local Time:

Weather
METAR:LFTH 041400Z AUTO 22010KT CAVOK 15/04 Q1022 BECMG 31007KT
TAF:LFTH 041400Z 0415/0515 32005KT CAVOK

Related Locations
Nearby:
Farthest:CHT: 12299 mi / 19794 km
Waitangi [Tuuta], CIT, NZ

Find:

   beyond  
but within

Other Information
Maps:
NOTAMs:
Links:
Sources:

  
  • flag of France
  • flag of Provence-Alpes-Côte d'Azur
  

Sectional Chart

Flight Planning
at skyvector.com

Satellite Image

Google Maps Satellite view

 

Copyright © 2004-2019 Karl L. Swartz. All rights reserved.
The Great Circle Mapper name and logo are trademarks of the Great Circle Mapper.
All other trademarks mentioned herein belong to their respective owners.
Please see credits for attibutions and further copyright information.

  Follow gcmap on Facebook Follow gcmap on Twitter GCmap on LinkedIn

hCard Microformat

Geo Microformat